TimePST,TemperatureF,Dew PointF,Humidity,Sea Level PressureIn,VisibilityMPH,Wind Direction,Wind SpeedMPH,Gust SpeedMPH,PrecipitationIn,Events,Conditions,WindDirDegrees,DateUTC
12:53 AM,28.9,24.1,82,30.32,5.0,Calm,Calm,-,N/A,,Haze,0,2013-11-23 08:53:00
1:53 AM,28.0,24.1,85,30.32,6.0,Calm,Calm,-,N/A,,Clear,0,2013-11-23 09:53:00
2:53 AM,26.1,21.9,84,30.31,7.0,Calm,Calm,-,N/A,,Clear,0,2013-11-23 10:53:00
3:53 AM,24.1,19.9,84,30.31,8.0,Calm,Calm,-,N/A,,Clear,0,2013-11-23 11:53:00
4:53 AM,25.0,21.0,85,30.31,6.0,Calm,Calm,-,N/A,,Clear,0,2013-11-23 12:53:00
5:53 AM,24.1,19.9,84,30.31,6.0,SE,3.5,-,N/A,,Clear,140,2013-11-23 13:53:00
6:53 AM,21.9,19.0,89,30.32,6.0,Calm,Calm,-,N/A,,Clear,0,2013-11-23 14:53:00
7:53 AM,24.1,19.9,84,30.33,6.0,Calm,Calm,-,N/A,,Clear,0,2013-11-23 15:53:00
8:53 AM,30.0,24.1,79,30.32,10.0,Calm,Calm,-,N/A,,Clear,0,2013-11-23 16:53:00
9:53 AM,36.0,27.0,70,30.31,10.0,Calm,Calm,-,N/A,,Clear,0,2013-11-23 17:53:00
10:53 AM,39.0,28.9,67,30.28,9.0,Calm,Calm,-,N/A,,Clear,0,2013-11-23 18:53:00
11:53 AM,44.1,30.0,58,30.23,10.0,Calm,Calm,-,N/A,,Clear,0,2013-11-23 19:53:00
12:53 PM,50.0,26.1,39,30.19,10.0,Calm,Calm,-,N/A,,Clear,0,2013-11-23 20:53:00
1:53 PM,54.0,27.0,35,30.15,10.0,Calm,Calm,-,N/A,,Clear,0,2013-11-23 21:53:00
2:53 PM,57.0,26.1,30,30.13,10.0,Calm,Calm,-,N/A,,Clear,0,2013-11-23 22:53:00
3:53 PM,57.0,28.9,34,30.12,10.0,Calm,Calm,-,N/A,,Clear,0,2013-11-23 23:53:00
4:53 PM,51.1,28.9,43,30.12,10.0,NNE,3.5,-,N/A,,Clear,30,2013-11-24 00:53:00
5:53 PM,46.9,30.0,52,30.14,10.0,SSW,4.6,-,N/A,,Clear,200,2013-11-24 01:53:00
6:53 PM,39.0,28.9,67,30.15,10.0,Calm,Calm,-,N/A,,Clear,0,2013-11-24 02:53:00
7:53 PM,37.0,28.9,73,30.16,10.0,Calm,Calm,-,N/A,,Clear,0,2013-11-24 03:53:00
8:53 PM,37.0,28.9,73,30.16,9.0,South,3.5,-,N/A,,Clear,190,2013-11-24 04:53:00
9:53 PM,34.0,28.0,79,30.17,6.0,SSE,6.9,-,N/A,,Haze,160,2013-11-24 05:53:00
10:53 PM,33.1,27.0,78,30.18,7.0,Calm,Calm,-,N/A,,Clear,0,2013-11-24 06:53:00
11:53 PM,30.9,26.1,82,30.18,5.0,Calm,Calm,-,N/A,,Haze,0,2013-11-24 07:53:00